Погода в Покрове

Россия / Владимирская область     56°29′13″N   39°09′35″E
темп.,
°C
ветер,
м/с
пор.,
м/с
влажн.,
%
обл.,
%
осадки,
мм/ч
давл.,
гПа
погр.,
м
20 января, чт
чт2000:00−8ююз61395100 0.1 1010364
03:00−7ююз71494100 0.1 1008374
06:00−6ююз71594100 0.1 1006451
09:00−6ююз71394100 0.1 1005470
12:00−4ююз71494100 0.1 1005525
15:00−4ююз81693100 0.1 1003601
18:00−4ю81693100 0.1 1002632
21:00−6ю81692100 0.2 1002609
21 января, пт
пт2100:00−6ю71592100 0.1 1002565
03:00−7ю71494100 0.4 1002506
06:00−7ю61393100 0.3 1002423
09:00−7ююв61293100 0.4 1002412
12:00−6ююв61293100 0.5 1001571
15:00−6юв61194100 0.9 1000654
18:00−7юв61293100 0.6 1000606
21:00−8юв5119398 0.8 1001435
22 января, сб
сб2200:00−9вюв41095100 0.1 1002289
03:00−8вюв4995100 1.0 1002412
06:00−8вюв4895100 1.3 1003344
09:00−10юв389783 1.5 1006179
12:00−8юв41094100 0.1 1009411
15:00−6юв599497 0.2 1011477
18:00−8юв5109589 0.1 1014323
21:00−11юв379782 0.1 1017137
23 января, вс
вс2300:00−14вюв369986 0.0 102074
03:00−15вюв369983 0.1 102168
06:00−14в2498100 0.1 102370
09:00−14всв249789 0.2 102580
12:00−11всв239584 0.1 1027126
15:00−11ссв129633 0.1 102824
18:00−17ссв2210081 0.0 103112
21:00−18ссв22100100 0.0 103312
24 января, пн
пн2400:00−19ссв22100100 0.0 103413
03:00−19ссв23100100 0.0 103431
06:00−20св22100100 0.0 103428
09:00−18ссв35100100 0.0 103460
12:00−12всв359580 0.0 1032141
15:00−10всв2496100 0.0 1031155
18:00−11в2498100 0.0 103069
21:00−14всв2210094 0.0 10299